STARLINK-3903, 52462

Orbit data source: Space-Track

STARLINK-3903, 52462 is a payload satellite owned by SpaceX/Seattle (US) in LEO that was launched on Fri, 06 May 2022 UTC via an FALCON 9 launch vehicle from the Air Force Eastern Test Range (AFETR). Payload-class satellites include a variety of spacecraft equipped with specific instruments for various scientific and technological missions. These include communications satellites like Starlink; space stations such as the ISS; scientific satellites like the Hubble; Earth observation satellites from companies like Planet Labs, Umbra, and HawkEye 360; GPS; miniature CubeSats for education and research; and military/defense satellites.

Loading next visibility...
Identifier
52462, 2022-049M
Orbit
LEO
Country
Flag of USUS
Related business
Manufacturer
SpaceX/Seattle
Mission
Operational Commercial Communications
Bus & Motor
STARLINK, Unknown motor
Mass
297 kg wet, ~220 kg dry
Launch date (UTC)
2022-05-06 (4 years ago)
Launch vehicle
FALCON 9
Launch site
Air Force Eastern Test Range (AFETR)
Object type
Payload
Rocket body
Debris
Shape & HBR
Box + 1 Pan, 10.1 m
Radar Cross Section
13.562 m², Large (>1 m²)

Expand to show TLE details & history
Last TLE update: 6 hours ago

TLE from 6 hours ago
0 STARLINK-3903
1 52462U 22049M   26220.16668980  .00070626  00000-0  23257-2 0  9994
2 52462  53.1603  96.4463 0000927  49.3418  74.3905 15.30866515  5843
Epoch: 2026-08-08T04:00Z
TLE epoch observation values (Epoch: 2026-08-08T04:00:01.998Z)
Latitude
41.85463°
Longitude
-142.11194°
Altitude
477.042 km
Speed
7.633 km/s
True Right ascension
15h 38m 18s
True Declination
41° 40' 36"
Sunlit
Object was in daylight at epoch
Visualization orbit readout
Latitude
Unknown
Longitude
Unknown
Altitude
Unknown
Speed
Unknown
Apparent Right ascension
Unknown
Apparent Declination
Unknown
Sunlit
N/A
Visualization observer readout
Local Sidereal Time
00:29:14
Azimuth
Unknown
Elevation
Unknown
Doppler factor
Unknown
Orbital elements
Apogee altitude
474.117 km
Perigee altitude
472.847 km
Semi-major axis
6,851.619 km
Eccentricity
0.00009
Inclination
53.1603°
RAAN
96.4463°
Arg. of periapsis
49.3418°
True anomaly
74.40073°
Mean anomaly
74.3905°
Eccentric anomaly
74.39562°
Mean motion
3.82695 °/min
Orbital period
94.07 mins
BSTAR
0.0023257
Loading maneuver chart data...
Computing Atmospheric mass density...
Loading historical data...
Loading historical data...
Loading historical data...
Loading historical data...
Loading historical data...
Loading historical data...
Loading historical data...

Documentation

Showing up to 5 results
|